Regional Weather Roundup
Issued by NWS

Home | Current Version | Previous Version | Graphics & Text | Print | Product List | Glossary On
Versions: 1 2 3 4 5 6 7 8 9 10 11 12 13 14 15 16 17 18 19 20 21 22 23 24 25 26 27 28 29 30 31 32 33 34 35 36 37 38 39 40 41 42 43 44 45 46 47 48 49 50
776
ASUS43 KFSD 192302
RWRSD

WEATHER ROUNDUP FOR SOUTH DAKOTA
NATIONAL WEATHER SERVICE SIOUX FALLS SD
500 PM CST FRI JAN 19 2018

NOTE: "FAIR" INDICATES FEW OR NO CLOUDS BELOW 12,000 FEET WITH NO
SIGNIFICANT WEATHER AND/OR OBSTRUCTIONS TO VISIBILITY.


SDZ001>005-009-010-012>017-200000-
NORTHWEST AND NORTH CENTRAL SOUTH DAKOTA

CITY           SKY/WX    TMP DP  RH WIND       PRES   REMARKS
BUFFALO          N/A     37  33  85 SW7       29.63R
FAITH            N/A     39  34  82 NW8       29.69R
MOBRIDGE       CLOUDY    45  30  55 NW12      29.63R
$$

SDZ012>016-024>037-041>051-057-063-072>074-200000-
SOUTHWEST AND SOUTH CENTRAL SOUTH DAKOTA

CITY           SKY/WX    TMP DP  RH WIND       PRES   REMARKS
RAPID CTY ARPT PTCLDY    42  31  64 NE7       29.70R
PIERRE         MOCLDY    44  32  62 NW7       29.67R
CUSTER         PTCLDY    46  23  40 S5        29.68R
ELLSWORTH AFB  PTCLDY    42  33  68 NE7       29.69S
PHILIP         CLOUDY    41  34  76 NW7       29.71R
PINE RIDGE     CLOUDY    42  32  67 NE5       29.70
SPEARFISH        N/A     37  32  81 NE8       29.70R
WINNER         FAIR      44  33  65 W8        29.68R
$$

SDZ004>011-016>023-039-040-200000-
NORTHEAST SOUTH DAKOTA

CITY           SKY/WX    TMP DP  RH WIND       PRES   REMARKS
ABERDEEN       MOCLDY    44  31  60 NW10      29.65R
WATERTOWN      CLOUDY    41  29  62 NW9       29.61R
BROOKINGS      CLOUDY    40  32  73 W7        29.62R
SISSETON         N/A     43  30  60 NW10      29.59R
$$

SDZ017-020-022-023-036>040-048>070-200000-
SOUTHEAST SOUTH DAKOTA

CITY           SKY/WX    TMP DP  RH WIND       PRES   REMARKS
SIOUX FALLS    CLOUDY    39  33  79 NW6       29.63R
HURON          CLOUDY    41  32  70 NW8       29.64R
CHAMBERLAIN    CLOUDY    42  34  72 NW7       29.66R
MITCHELL       MOCLDY    40  32  73 NW6       29.66R
YANKTON        CLOUDY    44  33  65 NW10      29.64R
$$

ABBREVIATIONS USED IN REMARKS
   TC - TEMPERATURE IN CELSIUS
  WCI - WIND CHILL INDEX
   HX - HEAT INDEX
  VSB - VISIBILITY





USA.gov is the U.S. government's official web portal to all federal, state and local government web resources and services.